Location: Unspecified
(0.0000°N, 0.0000°E)
Time: 15:00:07
(UTC+00:00)

CUTE-I - Pass Details

Date: 11 December 2019
Orbit: 811 x 824 km, 98.7° (Epoch: 14 August)

Event Time Altitude Azimuth Distance (km) Brightness Sun altitude
Rises 05:11:01 0° 36° (NE) 3,329 ? -9.7°
Reaches altitude 10° 05:13:45 10° 49° (NE) 2,398 ? -9.0°
Maximum altitude 05:18:01 25° 103° (ESE) 1,600 ? -8.0°
Drops below altitude 10° 05:22:16 10° 156° (SSE) 2,400 ? -7.1°
Sets 05:24:59 0° 169° (S) 3,333 ? -6.4°
